Location: Huntsville
(41.2590°N, 111.7678°W)
Time: 23:38:56
(UTC+00:00)

Envisat - Pass Details

Date: 15 May 2021
Orbit: 764 x 766 km, 98.1° (Epoch: 21 June)

Event Time Altitude Azimuth Distance (km) Brightness Sun altitude
Rises 11:27:39 0° 36° (NE) 3,239 7.8 -7.4°
Reaches altitude 10° 11:31:48 10° 69° (ENE) 2,305 7.1 -6.8°
Maximum altitude 11:33:26 11° 88° (E) 2,200 6.4 -6.5°
Drops below altitude 10° 11:35:05 10° 108° (ESE) 2,299 6.1 -6.3°
Sets 11:39:10 0° 141° (SE) 3,217 6.3 -5.6°
